Del Bajio, Mexico

12:03 PM CST on February 09, 2016 (GMT -0600)
De Guanajuato International

Weather History for MMLO - October, 2013

Change the Weather History Date:

Saturday, October 5, 2013

  Actual Average Record
Temperature  
Mean Temperature 68 °F -  
Max Temperature 84 °F 79 °F 87 °F (2011)
Min Temperature 53 °F 56 °F 46 °F (2012)
Cooling Degree Days 4    
Growing Degree Days 18 (Base 50)    
Moisture  
Dew Point 56 °F    
Average Humidity 71    
Maximum Humidity 94    
Minimum Humidity 37    
Precipitation  
Precipitation 0.00 in - - ()
Sea Level Pressure  
Sea Level Pressure 30.08 in    
Wind  
Wind Speed 3 mph ()    
Max Wind Speed 10 mph    
Max Gust Speed -    
Visibility 8.0 miles    
Events      
Averages and records for this station are not official NWS values.
T = Trace of Precipitation, MM = Missing Value Source: Averaged Metar Reports

Daily Weather History Graph

Daily Weather History Graph

Search for Another Location

Airport or City:

Trip Planner

Search our weather history database for the weather conditions in past years. The results will help you decide how hot, cold, wet, or windy it might be!

Date:

Astronomy

Oct. 05, 2013 Rise Set
Actual Time 7:38 AM CDT 7:29 PM CDT
Civil Twilight 7:16 AM CDT 7:52 PM CDT
Nautical Twilight 6:50 AM CDT 8:17 PM CDT
Astronomical Twilight 6:24 AM CDT 8:43 PM CDT
Moon 8:10 AM CDT (10/5) 8:02 PM CDT (10/5)
Length of Visible Light 12h 35m
Length of Day
11h 51m
New Moon, 1% of the Moon is Illuminated
Oct 5
New Moon
Oct 11
First Quarter
Oct 18
Full
Oct 26
Last Quarter
Nov 3
New

Hourly Weather History & Observations

Time (CDT) Temp. Heat Index Dew Point Humidity Pressure Visibility Wind Dir Wind Speed Gust Speed Precip Events Conditions
12:47 AM 60.8 °F - 57.2 °F 88% 29.83 in 8.0 mi WSW 8.1 mph - N/A   Scattered Clouds
1:50 AM 60.8 °F - 55.4 °F 82% 30.21 in 7.0 mi Calm Calm - N/A   Scattered Clouds
2:45 AM 59.0 °F - 55.4 °F 88% 30.20 in 7.0 mi Calm Calm - N/A   Scattered Clouds
3:40 AM 57.2 °F - 53.6 °F 88% 29.79 in 7.0 mi NNE 6.9 mph - N/A   Scattered Clouds
4:48 AM 55.4 °F - 53.6 °F 94% 30.19 in 7.0 mi Calm Calm - N/A   Partly Cloudy
5:47 AM 55.4 °F - 53.6 °F 94% 30.20 in 7.0 mi NNE 5.8 mph - N/A   Partly Cloudy
6:50 AM 55.4 °F - 53.6 °F 94% 29.88 in 7.0 mi Calm Calm - N/A   Clear
7:50 AM 53.6 °F - 51.8 °F 94% 30.23 in 6.0 mi NNE 5.8 mph - N/A   Scattered Clouds
8:40 AM 59.0 °F - 53.6 °F 82% 30.27 in 8.0 mi Calm Calm - N/A   Scattered Clouds
9:45 AM 66.2 °F - 57.2 °F 73% 29.95 in 8.0 mi Calm Calm - N/A   Partly Cloudy
10:42 AM 71.6 °F - 59.0 °F 64% 30.29 in 8.0 mi Calm Calm - N/A   Partly Cloudy
12:54 PM 77.0 °F - 60.8 °F 57% 29.87 in 9.0 mi WSW 4.6 mph - N/A   Scattered Clouds
1:50 PM 80.6 °F 81.5 °F 60.8 °F 51% 30.21 in 9.0 mi SW 10.4 mph - N/A   Scattered Clouds
2:49 PM 82.4 °F 82.5 °F 59.0 °F 45% 30.18 in 9.0 mi SSW 8.1 mph - N/A   Scattered Clouds
4:47 PM 84.2 °F 83.5 °F 57.2 °F 40% 30.12 in 9.0 mi SSW 4.6 mph - N/A   Scattered Clouds
5:43 PM 84.2 °F 83.0 °F 55.4 °F 37% 30.12 in 9.0 mi Calm Calm - N/A   Scattered Clouds
6:55 PM 78.8 °F - 57.2 °F 47% 29.75 in 9.0 mi Calm Calm - N/A   Scattered Clouds
7:43 PM 73.4 °F - 57.2 °F 57% 30.15 in 9.0 mi Calm Calm - N/A   Scattered Clouds
9:46 PM 66.2 °F - 57.2 °F 73% 29.84 in 8.0 mi NNE 6.9 mph - N/A   Clear
11:04 PM 64.4 °F - 55.4 °F 73% 30.24 in 8.0 mi NNE 5.8 mph - N/A   Clear
11:49 PM 62.6 °F - 51.8 °F 68% 30.24 in 8.0 mi ESE 4.6 mph - N/A   Clear